MYSat 1 (44045 NORAD) Tracking and Keplerian Element Data

This shows tracking and keplerian element data for the satellite.

Feedback or suggestion? Click here.




ElementValue
Catalog44045
NameMYSat 1
Epoch Orbit559
Epoch Day80.83640112
Epoch Year2019
RAAN81.051
Inclination51.6424
Eccentricity0.0012958
Argument of Perigee122.0888
Mean Anonmoly238.1342
Mean Motion15.34469321
Decay Rate3.134E-05
L11 44045U 18092F 19080.83640112 .00003134 00000-0 10352-3 0 9995
L22 44045 51.6424 81.0510 0012958 122.0888 238.1342 15.34469321 5590

Live tracking and technical data element details for MYSat 1 (NORAD 44045). MYSat 1 can be tracked NOW for your location showing map with azimuth and elevation plus other details from your city location.

Track the satellite on the map from your city or location and see movement details for azimuth, elevation, latitude, longitude, range, height, and movement on the map or in text.







IsCatalogInMostPopularTable: catalog: 44045, numindb: 14
Update: records affected: 1



GetName: 44045 MYSat 1

Hit Count: updated at: Sat, 23 Mar 2019 00:50:04 GMT